Date,TemperatureHighF,TemperatureAvgF,TemperatureLowF,DewpointHighF,DewpointAvgF,DewpointLowF,HumidityHigh,HumidityAvg,HumidityLow,PressureMaxIn,PressureMinIn,WindSpeedMaxMPH,WindSpeedAvgMPH,GustSpeedMaxMPH,PrecipitationSumIn
2013-6-1,75.0,65.5,57.0,70.5,34.2,-42.2,87,46,1,30.24,30.14,11,4,13,0.00
2013-6-3,66.0,63.1,60.0,0.0,-3.4,-38.6,5,0,1,30.06,30.03,8,4,13,0.20
2013-6-4,68.0,58.1,50.0,56.7,47.3,7.3,85,70,12,30.31,30.05,12,4,19,0.00
2013-6-5,65.0,58.2,48.0,58.4,48.8,19.1,88,72,28,30.44,30.31,8,4,11,0.00
2013-6-6,61.0,55.9,49.0,49.0,10.3,-45.3,67,22,1,30.42,30.30,13,5,17,0.00
2013-6-7,56.0,54.9,53.0,11.8,-6.9,-44.7,17,4,1,30.29,29.91,19,8,24,3.63
2013-6-8,68.0,59.9,52.0,50.8,11.2,-44.7,54,15,1,30.24,29.75,16,6,23,1.31
2013-6-9,72.0,63.3,55.0,64.3,31.7,-42.8,83,40,1,30.40,30.25,13,4,15,0.00
2013-6-10,65.0,58.7,54.0,45.5,10.2,-41.0,51,12,1,30.41,30.14,18,6,23,1.83
2013-6-11,71.0,62.3,56.0,11.7,-0.1,-36.8,10,0,1,30.14,29.78,14,5,21,1.04
2013-6-12,69.0,62.6,56.0,59.6,39.6,-30.7,89,55,2,30.07,29.83,17,6,28,0.01
2013-6-13,58.0,54.2,49.0,49.9,3.5,-47.8,80,13,1,30.06,29.75,19,6,24,0.70
2013-6-14,67.0,56.0,49.0,60.7,25.3,-43.5,87,37,1,30.04,29.76,12,5,20,0.76
2013-6-15,71.0,63.2,55.0,62.0,36.8,-43.5,89,47,1,30.18,30.04,12,5,15,0.00
2013-6-16,71.0,61.5,51.0,65.6,21.2,-44.1,88,28,1,30.21,29.96,10,3,15,0.00
2013-6-17,75.0,64.8,57.0,66.6,22.3,-40.4,82,25,1,30.15,30.03,12,4,19,0.01
2013-6-18,71.0,61.9,56.0,60.7,11.1,-38.6,70,12,1,30.14,30.06,11,3,12,0.33
2013-6-19,73.0,61.8,53.0,65.3,34.9,-33.3,89,47,2,30.39,30.10,9,4,14,0.01
2013-6-20,71.0,60.8,50.0,66.0,43.0,-45.9,90,63,1,30.51,30.38,8,3,10,0.00
2013-6-21,70.0,63.1,55.0,65.6,43.7,-23.2,88,59,5,30.53,30.45,13,6,18,0.00
2013-6-22,72.0,63.5,57.0,66.9,30.9,-42.2,89,43,1,30.49,30.38,10,4,11,0.00
2013-6-23,75.0,65.9,58.0,69.1,26.2,-23.5,83,28,2,30.43,30.28,11,4,14,0.00
2013-6-24,81.0,70.9,64.0,75.3,32.1,-7.2,86,34,4,30.28,30.09,10,5,14,0.00
2013-6-25,80.0,69.7,63.0,74.4,35.4,-38.6,85,37,1,30.19,29.95,9,4,18,0.00
2013-6-26,77.0,69.6,63.0,70.4,27.5,-38.0,82,29,1,30.04,29.96,11,3,16,0.02
2013-6-27,70.0,64.9,62.0,7.1,-2.3,-39.2,9,0,1,30.04,29.88,12,5,18,0.23
2013-6-28,72.0,67.2,63.0,37.2,-9.8,-39.2,29,4,1,29.90,29.72,12,5,19,0.05
2013-6-29,74.0,67.9,64.0,64.8,13.0,-36.2,73,13,1,29.94,29.71,10,4,15,0.01
2013-6-30,71.0,67.0,64.0,38.9,1.9,-35.5,31,2,1,30.16,29.94,10,3,13,0.27